Burley, ID

2:20 PM MDT on July 27, 2017 (GMT -0600)
Burley Municipal

Weather History for KBYI - January, 2014

Change the Weather History Date:

Wednesday, January 22, 2014

  Actual Average Record
Temperature  
Mean Temperature 22 °F 27 °F  
Max Temperature 26 °F 35 °F 54 °F (1994)
Min Temperature 17 °F 19 °F -30 °F (1962)
Degree Days  
Heating Degree Days 43 38  
Month to date heating degree days 729 848  
Since 1 July heating degree days 3568 3728  
Cooling Degree Days 0 0  
Month to date cooling degree days 0 0  
Year to date cooling degree days 0 0  
Moisture  
Dew Point 20 °F    
Average Humidity 92    
Maximum Humidity 100    
Minimum Humidity 84    
Precipitation  
Precipitation T in 0.03 in 0.57 in (1972)
Month to date precipitation 0.32 0.68  
Year to date precipitation 0.32 0.68  
Sea Level Pressure  
Sea Level Pressure 30.25 in    
Wind  
Wind Speed 3 mph (West)    
Max Wind Speed 12 mph    
Max Gust Speed 14 mph    
Visibility 3 miles    
Events Fog , Snow    
T = Trace of Precipitation, MM = Missing Value Source: NWS Daily Summary

Daily Weather History Graph

Daily Weather History Graph

Search for Another Location

Airport or City:

Trip Planner

Search our weather history database for the weather conditions in past years. The results will help you decide how hot, cold, wet, or windy it might be!

Date:

Astronomy

Jan. 22, 2014 Rise Set
Actual Time 7:57 AM MST 5:35 PM MST
Civil Twilight 7:27 AM MST 6:06 PM MST
Nautical Twilight 6:52 AM MST 6:40 PM MST
Astronomical Twilight 6:19 AM MST 7:14 PM MST
Moon No Moon Rise 10:52 AM MST (1/22)
Length of Visible Light 10h 39m
Length of Day
9h 38m
Waning Gibbous, 65% of the Moon is Illuminated
Jan 22
Waning Gibbous
Jan 23
Last Quarter
Jan 30
New
Feb 6
First Quarter
Feb 14
Full

Hourly Weather History & Observations

Time (MST) Temp. Windchill Dew Point Humidity Pressure Visibility Wind Dir Wind Speed Gust Speed Precip Events Conditions
12:53 AM 19.9 °F 13.4 °F 18.0 °F 92% 30.34 in 0.5 mi WSW 4.6 mph - N/A Fog Light Freezing Fog
1:53 AM 19.0 °F - 18.0 °F 96% 30.30 in 0.2 mi Calm Calm - N/A Fog Light Freezing Fog
2:53 AM 19.0 °F - 18.0 °F 96% 30.31 in 0.2 mi Calm Calm - N/A Fog Light Freezing Fog
3:53 AM 19.0 °F - 17.1 °F 92% 30.30 in 0.2 mi Calm Calm - N/A Fog Light Freezing Fog
4:53 AM 18.0 °F 12.7 °F 17.1 °F 96% 30.31 in 0.2 mi SSW 3.5 mph - N/A Fog Light Freezing Fog
5:53 AM 17.1 °F - 16.0 °F 96% 30.30 in 0.2 mi Calm Calm - N/A Fog Light Freezing Fog
6:53 AM 18.0 °F 12.7 °F 17.1 °F 96% 30.30 in 0.2 mi North 3.5 mph - N/A Fog Light Freezing Fog
7:53 AM 19.0 °F 12.3 °F 17.1 °F 92% 30.32 in 0.2 mi NNW 4.6 mph - N/A Fog Light Freezing Fog
8:53 AM 17.1 °F 11.7 °F 14.0 °F 88% 30.34 in 0.5 mi West 3.5 mph - 0.00 in Fog , Snow Light Snow
9:00 AM 17.1 °F - 14.0 °F 88% 30.23 in 2.0 mi Calm Calm - 0.00 in Snow Light Snow
9:09 AM 17.1 °F - 16.0 °F 96% 30.23 in 4.0 mi Calm Calm - 0.00 in   Overcast
9:14 AM 18.0 °F 12.7 °F 16.0 °F 92% 30.22 in 1.2 mi SSE 3.5 mph - 0.00 in   Overcast
9:22 AM 18.0 °F 12.7 °F 17.1 °F 96% 30.22 in 0.2 mi SW 3.5 mph - 0.00 in Fog Light Freezing Fog
9:53 AM 19.0 °F 13.9 °F 17.1 °F 92% 30.33 in 0.5 mi SW 3.5 mph - 0.00 in Fog Light Freezing Fog
10:53 AM 19.9 °F 14.9 °F 19.0 °F 96% 30.30 in 0.5 mi SW 3.5 mph - N/A Fog Light Freezing Fog
11:09 AM 19.9 °F 14.9 °F 19.0 °F 96% 30.18 in 1.2 mi Variable 3.5 mph - N/A   Overcast
11:22 AM 21.0 °F 14.6 °F 19.9 °F 96% 30.18 in 0.8 mi Variable 4.6 mph - N/A   Overcast
11:31 AM 21.0 °F 14.6 °F 19.9 °F 96% 30.18 in 1.8 mi North 4.6 mph - N/A   Overcast
11:36 AM 21.0 °F - 19.9 °F 96% 30.17 in 3.0 mi Calm Calm - N/A   Overcast
11:53 AM 21.9 °F 17.2 °F 19.9 °F 92% 30.29 in 3.0 mi North 3.5 mph - N/A   Overcast
12:40 PM 23.0 °F - 21.9 °F 96% 30.15 in 6.0 mi Calm Calm - N/A   Overcast
12:53 PM 24.1 °F - 21.9 °F 91% 30.26 in 6.0 mi Calm Calm - N/A   Overcast
1:16 PM 25.0 °F 17.1 °F 23.0 °F 92% 30.14 in 7.0 mi WSW 6.9 mph - N/A   Overcast
1:53 PM 26.1 °F 18.4 °F 23.0 °F 88% 30.23 in 8.0 mi West 6.9 mph - N/A   Overcast
2:53 PM 24.1 °F 15.2 °F 21.9 °F 91% 30.25 in 5.0 mi West 8.1 mph - N/A   Overcast
3:07 PM 24.1 °F 15.2 °F 21.9 °F 91% 30.14 in 6.0 mi West 8.1 mph - N/A   Overcast
3:53 PM 23.0 °F 14.7 °F 19.9 °F 88% 30.27 in 7.0 mi WSW 6.9 mph - N/A   Overcast
4:41 PM 21.0 °F 13.4 °F 19.9 °F 96% 30.18 in 4.0 mi WNW 5.8 mph - N/A   Overcast
4:53 PM 21.0 °F 12.4 °F 19.9 °F 96% 30.30 in 4.0 mi West 6.9 mph - N/A   Overcast
5:26 PM 21.0 °F 13.4 °F 19.9 °F 96% 30.18 in 2.0 mi West 5.8 mph - N/A   Overcast
5:41 PM 21.9 °F 12.5 °F 19.9 °F 92% 30.19 in 1.8 mi WSW 8.1 mph - N/A   Overcast
5:46 PM 21.9 °F 12.5 °F 19.9 °F 92% 30.19 in 3.0 mi SW 8.1 mph - N/A   Overcast
5:53 PM 21.9 °F 13.4 °F 19.9 °F 92% 30.31 in 4.0 mi WSW 6.9 mph - N/A   Overcast
6:38 PM 23.0 °F 12.4 °F 21.0 °F 92% 30.19 in 6.0 mi WSW 10.4 mph - N/A   Overcast
6:53 PM 23.0 °F 14.7 °F 21.0 °F 92% 30.31 in 7.0 mi WSW 6.9 mph - N/A   Overcast
7:27 PM 23.0 °F 17.0 °F 21.9 °F 96% 30.19 in 5.0 mi West 4.6 mph - N/A   Overcast
7:53 PM 23.0 °F 17.0 °F 21.9 °F 96% 30.31 in 4.0 mi NW 4.6 mph - N/A   Overcast
8:32 PM 23.0 °F 17.0 °F 21.9 °F 96% 30.20 in 2.0 mi NW 4.6 mph - N/A   Overcast
8:40 PM 23.0 °F 15.8 °F 21.9 °F 96% 30.21 in 1.5 mi North 5.8 mph - N/A   Overcast
8:53 PM 23.0 °F 18.4 °F 21.9 °F 96% 30.34 in 1.2 mi North 3.5 mph - N/A   Overcast
9:05 PM 23.0 °F 17.0 °F 21.9 °F 96% 30.22 in 3.0 mi NW 4.6 mph - N/A   Overcast
9:13 PM 23.0 °F 15.8 °F 21.0 °F 92% 30.22 in 1.8 mi NW 5.8 mph - N/A   Overcast
9:28 PM 21.9 °F 17.2 °F 21.0 °F 96% 30.22 in 3.0 mi NW 3.5 mph - N/A   Overcast
9:53 PM 21.9 °F - 21.0 °F 96% 30.35 in 3.0 mi Calm Calm - N/A   Overcast
10:09 PM 21.9 °F - 21.0 °F 96% 30.24 in 2.0 mi Calm Calm - N/A   Overcast
10:26 PM 21.9 °F 17.2 °F 21.0 °F 96% 30.24 in 5.0 mi WSW 3.5 mph - N/A   Overcast
10:53 PM 21.9 °F - 21.0 °F 96% 30.36 in 5.0 mi Calm Calm - N/A   Overcast
11:00 PM 21.9 °F 15.7 °F 21.0 °F 96% 30.25 in 8.0 mi SSW 4.6 mph - N/A   Overcast
11:31 PM 21.9 °F - 21.0 °F 96% 30.25 in 7.0 mi Calm Calm - N/A   Overcast
11:46 PM 21.9 °F - 21.0 °F 96% 30.26 in 6.0 mi Calm Calm - N/A   Overcast
11:53 PM 23.0 °F - 21.0 °F 92% 30.37 in 6.0 mi Calm Calm - N/A   Overcast